Regional Weather Roundup
Issued by NWS

Home | Current Version | Previous Version | Text Only | Print | Product List | Glossary On
Versions: 1 2 3 4 5 6 7 8 9 10 11 12 13 14 15 16 17 18 19 20 21 22 23 24 25 26 27 28 29 30 31 32 33 34 35 36 37 38 39 40 41 42 43 44 45 46 47 48 49 50
000
ASUS44 KFWD 162203
RWRTX
NORTH TEXAS HOURLY WEATHER ROUNDUP
NATIONAL WEATHER SERVICE FORT WORTH TX
400 PM CST TUE JAN 16 2018

NOTE: "FAIR" INDICATES FEW OR NO CLOUDS BELOW 12,000 FEET WITH NO
SIGNIFICANT WEATHER AND/OR OBSTRUCTIONS TO VISIBILITY.

TXZ118-119-162300-
DALLAS/FORT WORTH METROPLEX

CITY           SKY/WX    TMP DP  RH WIND       PRES   REMARKS
DFW AIRPORT    MOSUNNY   30   0  27 N18       30.68F WCI  18
DALLAS LOVE    MOSUNNY   29   2  31 N16G25    30.71F WCI  17
FTW MEACHAM    SUNNY     30   1  29 NW15G26   30.69F WCI  19
DAL-EXECUTIVE  SUNNY     28   2  32 N16G23    30.68F WCI  16
FTW-ALLIANCE   MOSUNNY   29   0  28 N18G24    30.69F WCI  16
FTW-NAS-JRB    SUNNY     30   0  27 NW14      30.71F WCI  19
FTW-SPINKS     SUNNY     28   1  31 NW15      30.71F WCI  17
ARLINGTON      SUNNY     28   1  31 NW18      30.69F WCI  15
GRAND PRAIRIE  SUNNY     28   0  29 NW12G22   30.71F WCI  18
ADDISON        SUNNY     27   3  36 NW16G23   30.70F WCI  14
MESQUITE       SUNNY     28   1  31 NW14G20   30.71F WCI  17
LANCASTER      CLOUDY    27   4  37 NW15      30.71F WCI  15
$$

TXZ091>094-102>105-117-120-121-131>134-162300-
NORTH CENTRAL TEXAS

CITY           SKY/WX    TMP DP  RH WIND       PRES   REMARKS
SHRMAN/DENISON SUNNY     26   1  33 N15G23    30.72S WCI  14
GAINESVILLE    SUNNY     26  -3  28 N13G20    30.72S WCI  15
BOWIE          SUNNY     27  -1  29 NW17      30.69S WCI  14
BRIDGEPORT     SUNNY     29   1  30 N14       30.72F WCI  18
DENTON         SUNNY     29   1  30 N16G24    30.70F WCI  17
MCKINNEY       SUNNY     27   1  32 N20       30.70F WCI  13
BONHAM         SUNNY     23   0  36 N13G21    30.71S WCI  11
ROCKWALL       SUNNY     27   4  36 MISG      30.70F
TERRELL        CLOUDY    27   3  35 N14G20    30.71F WCI  16
WAXAHACHIE     CLOUDY    26   6  44 N10       30.70F WCI  15
CLEBURNE       CLOUDY    27   0  31 N15G24    30.69F WCI  15
GRANBURY       SUNNY     31   1  28 N10G18    30.71F WCI  22
$$

TXZ083>090-098>101-113>116-127>130-139>142-154-155-162300-
WESTERN NORTH TEXAS

CITY           SKY/WX    TMP DP  RH WIND       PRES   REMARKS
WICHITA FALLS  MOSUNNY   28  -3  26 N16       30.71F WCI  16
WF-KICKAPOO    SUNNY     28  -4  24 N12G17    30.74F WCI  18
VERNON         SUNNY     30 -15  13 N15       30.71F WCI  19
ABILENE        SUNNY     26  -5  25 N17       30.66F WCI  13
ABILENE-DYESS  SUNNY     27  -7  22 N12       30.66F WCI  17
CISCO          SUNNY     27  -6  24 N13G21    30.66S WCI  16
EASTLAND       SUNNY     27  -4  26 N13       30.67S WCI  16
RANGER         SUNNY     27  -2  28 N9G20     30.66S WCI  18
MINERAL WELLS  SUNNY     29  -2  26 NW15G21   30.68F WCI  18
STEPHENVILLE   CLOUDY    28  -2  26 N16       30.69F WCI  17
COMANCHE       PTSUNNY   26   0  32 N12G17    30.68S WCI  15
BROWNWOOD      CLOUDY    27  -2  28 N9G16     30.68F WCI  17
COLEMAN        MOSUNNY   29  -4  24 N8        30.66F WCI  21
$$

TXZ143>147-156>162-174-175-162300-
CENTRAL TEXAS

CITY           SKY/WX    TMP DP  RH WIND       PRES   REMARKS
WACO           CLOUDY    25   4  40 N15       30.72F WCI  13
WACO-TSTC      PTSUNNY   25   3  39 N14       30.73F WCI  13
WACO-MCGREGOR  CLOUDY    25   5  42 N12       30.72S WCI  14
HILLSBORO      CLOUDY    25   6  44 N14       30.69F WCI  14
CORSICANA      CLOUDY    24   7  48 N10       30.72S WCI  14
MEXIA          CLOUDY    23   5  45 N14G20    30.69F WCI  11
HEARNE         CLOUDY    26   9  47 NW18      30.70S WCI  13
CAMERON        CLOUDY    26   9  47 N18G25    30.70S WCI  13
TEMPLE         CLOUDY    24   4  42 N18       30.70R WCI  10
KILLEEN        CLOUDY    23  -1  36 N17       30.66R WCI   9
KILLEEN-SKYLRK CLOUDY    24   4  42 N13       30.69R WCI  12
FORT HOOD      CLOUDY    23   1  38 N17       30.65R WCI   9
GATESVILLE     CLOUDY    23   0  36 N9G16     30.71S WCI  13
HAMILTON       CLOUDY    24   3  41 N10       30.68S WCI  13
LAMPASAS       CLOUDY    23  -3  32 N9        30.66S WCI  13
$$

TXZ095>097-106>112-122>126-135>138-148>153-164>167-162300-
EAST TEXAS

CITY           SKY/WX    TMP DP  RH WIND       PRES   REMARKS
PARIS          SUNNY     23   3  42 N12       30.70S WCI  12
SULPHUR SPRNGS SUNNY     26   4  38 N15G21    30.72S WCI  14
MOUNT PLEASANT SUNNY     25   6  45 NW13      30.71S WCI  14
GILMER         CLOUDY    23   6  49 MISG      30.69S
MINEOLA        CLOUDY    25   5  42 NW14      30.70S WCI  13
TYLER          CLOUDY    23   7  50 N14       30.68R WCI  11
LONGVIEW       PTSUNNY   24  11  57 NW13      30.67R WCI  12
MARSHALL       CLOUDY    25  11  55 N5        30.69R WCI  20
ATHENS         CLOUDY    21   5  49 N13G21    30.70R WCI   9
PALESTINE      CLOUDY    24  14  67 NW10G21   30.71S WCI  13
JACKSONVILLE   FAIR      22  13  67 NW6       30.67R WCI  15
CENTER         MOCLDY    24  12  58 NW12G17   30.66R WCI  13
LUFKIN         CLOUDY    25  14  63 N12       30.65R WCI  14
$$

SUPPLEMENTAL OBSERVATIONS (NWS FORT WORTH AREA)

CITY           SKY/WX    TMP DP  RH WIND       PRES   REMARKS
$$

SUPPLEMENTAL OBSERVATIONS (NWS NORMAN AREA)

CITY           SKY/WX    TMP DP  RH WIND       PRES   REMARKS
GOODLETT         N/A     29 -17  13 NW9       30.68F WCI  20
ODELL            N/A     27  -7  22 N10       30.72S WCI  18
CROWELL          N/A     29 -12  16 N10       30.71S WCI  20
KNOX CITY        N/A     29 -10  18 N8        30.71S WCI  21
SEYMOUR          N/A     28  -9  19 NW10      30.71F WCI  19
$$

SUPPLEMENTAL OBSERVATIONS (NWS SAN ANGELO AREA)

CITY           SKY/WX    TMP DP  RH WIND       PRES   REMARKS
WEINERT          N/A     27  -8  21 N16       30.70F WCI  15
HASKELL          N/A     27  -7  22 N13       30.69F WCI  16
THROCKMORTON     N/A     26  -4  26 NW10      30.71S WCI  17
CLYDE            N/A     25  -5  26 N15       30.65F WCI  13
$$

SUPPLEMENTAL OBSERVATIONS (NWS SHREVEPORT AREA)

CITY           SKY/WX    TMP DP  RH WIND       PRES   REMARKS
$$

SUPPLEMENTAL OBSERVATIONS ARE A COLLECTION OF AUTOMATED INSTRUMENTS
THAT ARE MAINTAINED BY A VARIETY OF FEDERAL AND STATE AGENCIES.
CERTAIN ELEMENTS...SUCH AS HUMIDITY VALUES AND SUSTAINED WIND
SPEEDS...MAY BE APPROXIMATED.





USA.gov is the U.S. government's official web portal to all federal, state and local government web resources and services.